GW4024 Weather Reports


Display with metric or nautical units.
time (UTC)temp
F
wind
direction
speed
MPH
gust
MPH
rain 1hr
in
rain 24hr
in
rain mn
in
humidity
%
barometer
mb
20260506181548 57 171 2.0 5.0 0.09 0.60 0.60 96 1005.2
20260506180040 57 171 0.0 2.0 0.07 0.56 0.56 96 1005.4
20260506174540 58 171 0.0 3.0 0.07 0.54 0.54 96 1005.4
20260506173044 57 171 0.0 2.0 0.09 0.52 0.52 96 1005.3
20260506171537 57 171 0.0 2.0 0.10 0.51 0.51 95 1005.4
20260506170026 56 171 0.0 1.0 0.10 0.49 0.49 95 1005.7
20260506164538 56 171 0.0 1.0 0.09 0.46 0.46 95 1005.9
20260506163016 56 171 0.0 1.0 0.09 0.43 0.43 95 1006.1
20260506161517 56 171 0.0 2.0 0.10 0.41 0.41 95 1006.0
20260506160013 55 171 0.0 1.0 0.10 0.39 0.39 95 1006.4
20260506154512 56 171 0.0 1.0 0.10 0.37 0.37 94 1006.4
20260506153010 55 171 0.0 2.0 0.10 0.34 0.34 94 1006.8
20260506151508 55 171 0.0 2.0 0.09 0.31 0.31 94 1006.9
20260506150008 55 171 0.0 1.0 0.10 0.28 0.28 93 1007.0
20260506144511 54 171 0.0 1.0 0.10 0.27 0.27 94 1007.2
20260506143007 55 171 0.0 2.0 0.10 0.24 0.24 94 1007.6
20260506141522 54 171 0.0 0.0 0.10 0.22 0.22 93 1007.8
20260506140005 54 171 0.0 0.0 0.09 0.19 0.19 93 1007.9
20260506134504 54 171 0.0 0.0 0.09 0.17 0.17 93 1007.7
20260506133005 54 171 0.0 0.0 0.07 0.14 0.14 92 1007.7
20260506131507 55 171 0.0 0.0 0.07 0.12 0.12 92 1007.3
20260506130004 54 171 0.0 0.0 0.07 0.10 0.10 91 1007.5
20260506124502 54 171 0.0 1.0 0.06 0.08 0.08 92 1007.3
20260506123004 54 171 0.0 0.0 0.05 0.07 0.07 92 1007.8
20260506121602 53 171 0.0 1.0 0.03 0.05 0.05 91 1008.1
20260506120110 54 286 0.0 3.0 0.01 0.03 0.03 91 1008.3
20260506114559 54 180 0.0 2.0 0.00 0.02 0.02 90 1007.9
20260506113058 54 247 2.0 5.0 0.00 0.02 0.02 89 1007.7
20260506111558 54 212 1.0 5.0 0.00 0.02 0.02 89 1007.6
20260506110112 54 46 0.0 3.0 0.00 0.05 0.02 88 1007.6
20260506104612 54 61 0.0 6.0 0.00 0.05 0.02 88 1007.8
20260506103055 54 329 3.0 5.0 0.00 0.05 0.02 88 1007.5
20260506101554 54 10 3.0 9.0 0.00 0.05 0.02 88 1007.3
20260506094600 54 251 0.0 2.0 0.00 0.07 0.02 87 1007.1
20260506093052 54 240 0.0 2.0 0.00 0.07 0.02 87 1007.1
20260506091551 54 157 0.0 3.0 0.00 0.07 0.02 87 1007.2
20260506090049 54 183 0.0 2.0 0.00 0.07 0.02 87 1007.1
20260506084616 54 288 0.0 3.0 0.00 0.07 0.02 87 1007.1
20260506083048 54 209 0.0 3.0 0.00 0.07 0.02 86 1007.5
20260506081554 54 266 1.0 4.0 0.00 0.07 0.02 86 1007.8
20260506073043 55 273 0.0 3.0 0.00 0.07 0.02 88 1008.3
20260506071541 55 232 0.0 0.0 0.00 0.07 0.02 88 1008.2
20260506061536 56 194 0.0 0.0 0.00 0.07 0.02 88 1008.7
20260506044535 57 183 0.0 6.0 0.02 0.07 0.02 82 1008.5
20260506043027 57 348 4.0 11.0 0.02 0.07 0.02 82 1008.5
20260506041522 58 345 9.0 14.0 0.00 0.05 0.00 81 1008.3
20260506040020 59 342 8.0 17.0 0.00 0.05 0.05 80 1008.3
20260506034521 61 333 9.0 16.0 0.00 0.05 0.05 75 1008.6
20260506033019 61 348 8.0 13.0 0.00 0.05 0.05 75 1008.6
20260506031518 62 325 3.0 10.0 0.00 0.05 0.05 75 1008.6
20260506030018 62 311 1.0 10.0 0.00 0.05 0.05 75 1008.6
20260506024517 64 345 6.0 15.0 0.00 0.05 0.05 76 1008.2
20260506023027 65 291 3.0 12.0 0.00 0.05 0.05 73 1008.2
20260506021521 66 339 4.0 8.0 0.00 0.05 0.05 72 1008.1
20260506020014 66 242 0.0 4.0 0.00 0.05 0.05 70 1007.9
20260506014513 67 227 3.0 4.0 0.00 0.05 0.05 69 1007.6
20260506013014 67 182 0.0 3.0 0.00 0.05 0.05 67 1007.3
20260506011510 68 230 1.0 6.0 0.00 0.05 0.05 65 1007.0
20260506010013 68 179 4.0 8.0 0.00 0.05 0.05 64 1006.7
20260506004511 68 201 4.0 9.0 0.00 0.05 0.05 65 1006.7
20260506003010 67 216 4.0 8.0 0.00 0.05 0.05 67 1006.7
20260506001507 66 165 3.0 5.0 0.00 0.05 0.05 70 1006.3
20260506000007 67 173 2.0 5.0 0.00 0.05 0.05 67 1006.0
20260505234507 69 227 2.0 8.0 0.00 0.05 0.05 62 1006.0
20260505233008 69 206 3.0 7.0 0.00 0.05 0.05 62 1005.9
20260505231507 69 230 5.0 10.0 0.00 0.05 0.05 63 1005.5
20260505230010 69 186 8.0 15.0 0.00 0.05 0.05 63 1005.4
20260505224505 68 198 7.0 14.0 0.00 0.05 0.05 65 1005.1
20260505223005 67 246 6.0 12.0 0.00 0.05 0.05 68 1005.1
20260505221503 67 247 2.0 12.0 0.00 0.05 0.05 71 1005.7
20260505220002 67 140 10.0 17.0 0.00 0.05 0.05 72 1006.0
20260505214503 67 276 7.0 16.0 0.00 0.05 0.05 70 1005.6
20260505213004 67 218 5.0 18.0 0.00 0.05 0.05 70 1005.9
20260505211504 67 331 10.0 20.0 0.00 0.05 0.05 67 1004.8
20260505204600 75 348 12.0 18.0 0.00 0.05 0.05 54 1004.1
20260505203121 77 208 4.0 9.0 0.00 0.05 0.05 47 1003.1
20260505201604 76 339 5.0 9.0 0.00 0.05 0.05 48 1003.0
20260505200100 76 213 3.0 12.0 0.00 0.05 0.05 48 1003.1
20260505194557 78 313 10.0 24.0 0.00 0.05 0.05 45 1003.5
20260505193056 81 229 11.0 23.0 0.00 0.05 0.05 33 1003.2
20260505191610 81 238 12.0 21.0 0.00 0.05 0.05 33 1003.0
20260505190055 82 212 14.0 26.0 0.00 0.05 0.05 33 1003.0
20260505184554 82 232 9.0 18.0 0.00 0.05 0.05 34 1003.0
20260505183052 81 184 12.0 22.0 0.00 0.05 0.05 34 1003.2